Location: Altenst�hlen
(53.5567°N, 8.9425°E)
Time: 22:35:42
(UTC+00:00)

STARLINK-36 - Pass Details

Date: 23 October 2019
Orbit: 548 x 551 km, 53.0° (Epoch: 15 November)

Event Time Altitude Azimuth Distance (km) Brightness Sun altitude
Rises 18:06:35 0° 279° (W) 2,720 8.9 -17.8°
Reaches altitude 10° 18:08:49 10° 277° (W) 1,826 7.6 -18.1°
Maximum altitude 18:12:57 71° 194° (SSW) 586 3.7 -18.8°
Enters shadow 18:14:06 45° 126° (SE) 759 3.9 -18.9°
